owner,sensor,date,latitude,longitude,vertical_datum,sea_water_practical_salinity,qcFlag 
DISL,ioos:station:DISL:MHPA:1,2009-02-01T00:00:00Z,30.6671,-87.9365,3.124,0.13,1111122 
DISL,ioos:station:DISL:MHPA:1,2009-02-01T00:30:00Z,30.6671,-87.9365,3.078,0.13,1111122 
DISL,ioos:station:DISL:MHPA:1,2009-02-01T01:00:00Z,30.6671,-87.9365,2.976,0.13,1111122 
DISL,ioos:station:DISL:MHPA:1,2009-02-01T01:30:00Z,30.6671,-87.9365,2.868,0.13,1111122 
DISL,ioos:station:DISL:MHPA:1,2009-02-01T02:00:00Z,30.6671,-87.9365,2.738,0.13,1111122 
DISL,ioos:station:DISL:MHPA:1,2009-02-01T02:30:00Z,30.6671,-87.9365,2.62,0.13,1111122 
DISL,ioos:station:DISL:MHPA:1,2009-02-01T03:00:00Z,30.6671,-87.9365,2.513,0.13,1111122 
DISL,ioos:station:DISL:MHPA:1,2009-02-01T03:30:00Z,30.6671,-87.9365,2.405,0.13,1111122 
DISL,ioos:station:DISL:MHPA:1,2009-02-01T04:00:00Z,30.6671,-87.9365,2.328,0.13,1111122 
DISL,ioos:station:DISL:MHPA:1,2009-02-01T04:30:00Z,30.6671,-87.9365,2.283,0.13,1111122 
DISL,ioos:station:DISL:MHPA:1,2009-02-01T05:00:00Z,30.6671,-87.9365,2.259,0.13,1111122 
DISL,ioos:station:DISL:MHPA:1,2009-02-01T05:30:00Z,30.6671,-87.9365,2.24,0.13,1111122 
DISL,ioos:station:DISL:MHPA:1,2009-02-01T06:00:00Z,30.6671,-87.9365,2.246,0.13,1111122 
DISL,ioos:station:DISL:MHPA:1,2009-02-01T06:30:00Z,30.6671,-87.9365,2.251,0.13,1111122 
DISL,ioos:station:DISL:MHPA:1,2009-02-01T07:00:00Z,30.6671,-87.9365,2.237,0.13,1111122 
DISL,ioos:station:DISL:MHPA:1,2009-02-01T07:30:00Z,30.6671,-87.9365,2.224,0.13,1111122 
DISL,ioos:station:DISL:MHPA:1,2009-02-01T08:00:00Z,30.6671,-87.9365,2.239,0.13,1111122 
DISL,ioos:station:DISL:MHPA:1,2009-02-01T08:30:00Z,30.6671,-87.9365,2.239,0.13,1111122 
DISL,ioos:station:DISL:MHPA:1,2009-02-01T09:00:00Z,30.6671,-87.9365,2.221,0.13,1111122 
DISL,ioos:station:DISL:MHPA:1,2009-02-01T09:30:00Z,30.6671,-87.9365,2.229,0.13,1111122 
DISL,ioos:station:DISL:MHPA:1,2009-02-01T10:00:00Z,30.6671,-87.9365,2.28,0.13,1111122 
DISL,ioos:station:DISL:MHPA:1,2009-02-01T10:30:00Z,30.6671,-87.9365,2.312,0.13,1111122 
DISL,ioos:station:DISL:MHPA:1,2009-02-01T11:00:00Z,30.6671,-87.9365,2.368,0.13,1111122 
DISL,ioos:station:DISL:MHPA:1,2009-02-01T11:30:00Z,30.6671,-87.9365,2.446,0.13,1111122 
DISL,ioos:station:DISL:MHPA:1,2009-02-01T12:00:00Z,30.6671,-87.9365,2.452,0.13,1111122 
DISL,ioos:station:DISL:MHPA:1,2009-02-01T12:30:00Z,30.6671,-87.9365,2.467,0.13,1111122 
DISL,ioos:station:DISL:MHPA:1,2009-02-01T13:00:00Z,30.6671,-87.9365,2.49,0.13,1111122 
DISL,ioos:station:DISL:MHPA:1,2009-02-01T13:30:00Z,30.6671,-87.9365,2.469,0.13,1111122 
DISL,ioos:station:DISL:MHPA:1,2009-02-01T14:00:00Z,30.6671,-87.9365,2.5,0.13,1111122 
DISL,ioos:station:DISL:MHPA:1,2009-02-01T14:30:00Z,30.6671,-87.9365,2.533,0.13,1111122 
DISL,ioos:station:DISL:MHPA:1,2009-02-01T15:00:00Z,30.6671,-87.9365,2.517,0.13,1111122 
DISL,ioos:station:DISL:MHPA:1,2009-02-01T15:30:00Z,30.6671,-87.9365,2.552,0.13,1111122 
DISL,ioos:station:DISL:MHPA:1,2009-02-01T16:00:00Z,30.6671,-87.9365,2.635,0.13,1111122 
DISL,ioos:station:DISL:MHPA:1,2009-02-01T16:30:00Z,30.6671,-87.9365,2.759,0.13,1111122 
DISL,ioos:station:DISL:MHPA:1,2009-02-01T17:00:00Z,30.6671,-87.9365,2.855,0.13,1111122 
DISL,ioos:station:DISL:MHPA:1,2009-02-01T17:30:00Z,30.6671,-87.9365,2.973,0.13,1111122 
DISL,ioos:station:DISL:MHPA:1,2009-02-01T18:00:00Z,30.6671,-87.9365,3.096,0.13,1111122 
DISL,ioos:station:DISL:MHPA:1,2009-02-01T18:30:00Z,30.6671,-87.9365,3.21,0.13,1111122 
DISL,ioos:station:DISL:MHPA:1,2009-02-01T19:00:00Z,30.6671,-87.9365,3.34,0.13,1111122 
DISL,ioos:station:DISL:MHPA:1,2009-02-01T19:30:00Z,30.6671,-87.9365,3.507,0.13,1111122 
DISL,ioos:station:DISL:MHPA:1,2009-02-01T20:00:00Z,30.6671,-87.9365,3.542,0.13,1111122 
DISL,ioos:station:DISL:MHPA:1,2009-02-01T20:30:00Z,30.6671,-87.9365,3.543,0.13,1111122 
DISL,ioos:station:DISL:MHPA:1,2009-02-01T21:00:00Z,30.6671,-87.9365,3.611,0.13,1111122 
DISL,ioos:station:DISL:MHPA:1,2009-02-01T21:30:00Z,30.6671,-87.9365,3.661,0.13,1111122 
DISL,ioos:station:DISL:MHPA:1,2009-02-01T22:00:00Z,30.6671,-87.9365,3.652,0.13,1111122 
DISL,ioos:station:DISL:MHPA:1,2009-02-01T22:30:00Z,30.6671,-87.9365,3.704,0.13,1111122 
DISL,ioos:station:DISL:MHPA:1,2009-02-01T23:00:00Z,30.6671,-87.9365,3.743,0.13,1111122 
DISL,ioos:station:DISL:MHPA:1,2009-02-01T23:30:00Z,30.6671,-87.9365,3.706,0.13,1111122 
DISL,ioos:station:DISL:MHPA:1,2009-02-02T00:00:00Z,30.6671,-87.9365,3.671,0.13,1111122 
DISL,ioos:station:DISL:MHPA:1,2009-02-02T00:30:00Z,30.6671,-87.9365,3.648,0.13,1111122 
DISL,ioos:station:DISL:MHPA:1,2009-02-02T01:00:00Z,30.6671,-87.9365,3.507,0.13,1111122 
DISL,ioos:station:DISL:MHPA:1,2009-02-02T01:30:00Z,30.6671,-87.9365,3.396,0.13,1111122 
DISL,ioos:station:DISL:MHPA:1,2009-02-02T02:00:00Z,30.6671,-87.9365,3.284,0.13,1111122 
DISL,ioos:station:DISL:MHPA:1,2009-02-02T02:30:00Z,30.6671,-87.9365,3.16,0.13,1111122 
DISL,ioos:station:DISL:MHPA:1,2009-02-02T03:00:00Z,30.6671,-87.9365,3.046,0.13,1111122 
DISL,ioos:station:DISL:MHPA:1,2009-02-02T03:30:00Z,30.6671,-87.9365,2.964,0.13,1111122 
DISL,ioos:station:DISL:MHPA:1,2009-02-02T04:00:00Z,30.6671,-87.9365,2.895,0.13,1111122 
DISL,ioos:station:DISL:MHPA:1,2009-02-02T04:30:00Z,30.6671,-87.9365,2.811,0.13,1111122 
DISL,ioos:station:DISL:MHPA:1,2009-02-02T05:00:00Z,30.6671,-87.9365,2.79,0.13,1111122 
DISL,ioos:station:DISL:MHPA:1,2009-02-02T05:30:00Z,30.6671,-87.9365,2.767,0.13,1111122 
DISL,ioos:station:DISL:MHPA:1,2009-02-02T06:00:00Z,30.6671,-87.9365,2.758,0.13,1111122 
DISL,ioos:station:DISL:MHPA:1,2009-02-02T06:30:00Z,30.6671,-87.9365,2.723,0.13,1111122 
DISL,ioos:station:DISL:MHPA:1,2009-02-02T07:00:00Z,30.6671,-87.9365,2.726,0.13,1111122 
DISL,ioos:station:DISL:MHPA:1,2009-02-02T07:30:00Z,30.6671,-87.9365,2.749,0.13,1111122 
DISL,ioos:station:DISL:MHPA:1,2009-02-02T08:00:00Z,30.6671,-87.9365,2.817,0.13,1111122 
DISL,ioos:station:DISL:MHPA:1,2009-02-02T08:30:00Z,30.6671,-87.9365,2.801,0.13,1111122 
DISL,ioos:station:DISL:MHPA:1,2009-02-02T09:00:00Z,30.6671,-87.9365,2.82,0.13,1111122 
DISL,ioos:station:DISL:MHPA:1,2009-02-02T09:30:00Z,30.6671,-87.9365,3.02,0.13,1111122 
DISL,ioos:station:DISL:MHPA:1,2009-02-02T10:00:00Z,30.6671,-87.9365,3.019,0.13,1111122 
DISL,ioos:station:DISL:MHPA:1,2009-02-02T10:30:00Z,30.6671,-87.9365,3.028,0.14,1111122 
DISL,ioos:station:DISL:MHPA:1,2009-02-02T11:00:00Z,30.6671,-87.9365,3.168,0.14,1111122 
DISL,ioos:station:DISL:MHPA:1,2009-02-02T11:30:00Z,30.6671,-87.9365,3.239,0.14,1111122 
DISL,ioos:station:DISL:MHPA:1,2009-02-02T12:00:00Z,30.6671,-87.9365,3.286,0.13,1111122 
DISL,ioos:station:DISL:MHPA:1,2009-02-02T12:30:00Z,30.6671,-87.9365,3.389,0.13,1111122 
DISL,ioos:station:DISL:MHPA:1,2009-02-02T13:00:00Z,30.6671,-87.9365,3.457,0.13,1111122 
DISL,ioos:station:DISL:MHPA:1,2009-02-02T13:30:00Z,30.6671,-87.9365,3.556,0.13,1111122 
DISL,ioos:station:DISL:MHPA:1,2009-02-02T14:00:00Z,30.6671,-87.9365,3.505,0.13,1111122 
DISL,ioos:station:DISL:MHPA:1,2009-02-02T14:30:00Z,30.6671,-87.9365,3.447,0.13,1111122 
DISL,ioos:station:DISL:MHPA:1,2009-02-02T15:00:00Z,30.6671,-87.9365,3.52,0.13,1111122 
DISL,ioos:station:DISL:MHPA:1,2009-02-02T15:30:00Z,30.6671,-87.9365,3.486,0.13,1111122 
DISL,ioos:station:DISL:MHPA:1,2009-02-02T16:00:00Z,30.6671,-87.9365,3.565,0.13,1111122 
DISL,ioos:station:DISL:MHPA:1,2009-02-02T16:30:00Z,30.6671,-87.9365,3.673,0.13,1111122 
DISL,ioos:station:DISL:MHPA:1,2009-02-02T17:00:00Z,30.6671,-87.9365,3.751,0.13,1111122 
DISL,ioos:station:DISL:MHPA:1,2009-02-02T17:30:00Z,30.6671,-87.9365,3.718,0.13,1111122 
DISL,ioos:station:DISL:MHPA:1,2009-02-02T18:00:00Z,30.6671,-87.9365,3.657,0.13,1111122 
DISL,ioos:station:DISL:MHPA:1,2009-02-02T18:30:00Z,30.6671,-87.9365,3.708,0.13,1111122 
DISL,ioos:station:DISL:MHPA:1,2009-02-02T19:00:00Z,30.6671,-87.9365,3.637,0.13,1111122 
DISL,ioos:station:DISL:MHPA:1,2009-02-02T19:30:00Z,30.6671,-87.9365,3.496,0.13,1111122 
DISL,ioos:station:DISL:MHPA:1,2009-02-02T20:00:00Z,30.6671,-87.9365,3.629,0.13,1111122 
DISL,ioos:station:DISL:MHPA:1,2009-02-02T20:30:00Z,30.6671,-87.9365,3.37,0.13,1111122 
DISL,ioos:station:DISL:MHPA:1,2009-02-02T21:00:00Z,30.6671,-87.9365,3.244,0.13,1111122 
DISL,ioos:station:DISL:MHPA:1,2009-02-02T21:30:00Z,30.6671,-87.9365,3.278,0.13,1111122 
DISL,ioos:station:DISL:MHPA:1,2009-02-02T22:00:00Z,30.6671,-87.9365,3.127,0.13,1111122 
DISL,ioos:station:DISL:MHPA:1,2009-02-02T22:30:00Z,30.6671,-87.9365,2.873,0.13,1111122 
DISL,ioos:station:DISL:MHPA:1,2009-02-02T23:00:00Z,30.6671,-87.9365,2.755,0.13,1111122 
DISL,ioos:station:DISL:MHPA:1,2009-02-02T23:30:00Z,30.6671,-87.9365,2.696,0.13,1111122 
DISL,ioos:station:DISL:MHPA:1,2009-02-03T00:00:00Z,30.6671,-87.9365,2.6,0.13,1111122 
DISL,ioos:station:DISL:MHPA:1,2009-02-03T00:30:00Z,30.6671,-87.9365,2.504,0.13,1111122 
DISL,ioos:station:DISL:MHPA:1,2009-02-03T01:00:00Z,30.6671,-87.9365,2.434,0.13,1111122 
DISL,ioos:station:DISL:MHPA:1,2009-02-03T01:30:00Z,30.6671,-87.9365,2.386,0.13,1111122 
DISL,ioos:station:DISL:MHPA:1,2009-02-03T02:00:00Z,30.6671,-87.9365,2.33,0.13,1111122 
DISL,ioos:station:DISL:MHPA:1,2009-02-03T02:30:00Z,30.6671,-87.9365,2.267,0.13,1111122 
DISL,ioos:station:DISL:MHPA:1,2009-02-03T03:00:00Z,30.6671,-87.9365,2.183,0.13,1111122 
DISL,ioos:station:DISL:MHPA:1,2009-02-03T03:30:00Z,30.6671,-87.9365,2.054,0.13,1111122 
DISL,ioos:station:DISL:MHPA:1,2009-02-03T04:00:00Z,30.6671,-87.9365,1.922,0.13,1111122 
DISL,ioos:station:DISL:MHPA:1,2009-02-03T04:30:00Z,30.6671,-87.9365,1.824,0.13,1111122 
DISL,ioos:station:DISL:MHPA:1,2009-02-03T05:00:00Z,30.6671,-87.9365,1.755,0.13,1111122 
DISL,ioos:station:DISL:MHPA:1,2009-02-03T05:30:00Z,30.6671,-87.9365,1.697,0.13,1111122 
DISL,ioos:station:DISL:MHPA:1,2009-02-03T06:00:00Z,30.6671,-87.9365,1.678,0.13,1111122 
DISL,ioos:station:DISL:MHPA:1,2009-02-03T06:30:00Z,30.6671,-87.9365,1.692,0.13,1111122 
DISL,ioos:station:DISL:MHPA:1,2009-02-03T07:00:00Z,30.6671,-87.9365,1.696,0.13,1111122 
DISL,ioos:station:DISL:MHPA:1,2009-02-03T07:30:00Z,30.6671,-87.9365,1.669,0.13,1111122 
DISL,ioos:station:DISL:MHPA:1,2009-02-03T08:00:00Z,30.6671,-87.9365,1.628,0.13,1111122 
DISL,ioos:station:DISL:MHPA:1,2009-02-03T08:30:00Z,30.6671,-87.9365,1.576,0.13,1111122 
DISL,ioos:station:DISL:MHPA:1,2009-02-03T09:00:00Z,30.6671,-87.9365,1.552,0.13,1111122 
DISL,ioos:station:DISL:MHPA:1,2009-02-03T09:30:00Z,30.6671,-87.9365,1.536,0.13,1111122 
DISL,ioos:station:DISL:MHPA:1,2009-02-03T10:00:00Z,30.6671,-87.9365,1.551,0.13,1111122 
DISL,ioos:station:DISL:MHPA:1,2009-02-03T10:30:00Z,30.6671,-87.9365,1.596,0.13,1111122 
DISL,ioos:station:DISL:MHPA:1,2009-02-03T11:00:00Z,30.6671,-87.9365,1.652,0.13,1111122 
DISL,ioos:station:DISL:MHPA:1,2009-02-03T11:30:00Z,30.6671,-87.9365,1.725,0.13,1111122 
DISL,ioos:station:DISL:MHPA:1,2009-02-03T12:00:00Z,30.6671,-87.9365,1.785,0.13,1111122 
DISL,ioos:station:DISL:MHPA:1,2009-02-03T12:30:00Z,30.6671,-87.9365,1.851,0.13,1111122 
DISL,ioos:station:DISL:MHPA:1,2009-02-03T13:00:00Z,30.6671,-87.9365,1.921,0.13,1111122 
DISL,ioos:station:DISL:MHPA:1,2009-02-03T13:30:00Z,30.6671,-87.9365,2.007,0.13,1111122 
DISL,ioos:station:DISL:MHPA:1,2009-02-03T14:00:00Z,30.6671,-87.9365,2.128,0.13,1111122 
DISL,ioos:station:DISL:MHPA:1,2009-02-03T14:30:00Z,30.6671,-87.9365,2.292,0.13,1111122 
DISL,ioos:station:DISL:MHPA:1,2009-02-03T15:00:00Z,30.6671,-87.9365,2.456,0.13,1111122 
DISL,ioos:station:DISL:MHPA:1,2009-02-03T15:30:00Z,30.6671,-87.9365,2.65,0.13,1111122 
DISL,ioos:station:DISL:MHPA:1,2009-02-03T16:00:00Z,30.6671,-87.9365,2.817,0.13,1111122 
DISL,ioos:station:DISL:MHPA:1,2009-02-03T16:30:00Z,30.6671,-87.9365,2.969,0.13,1111122 
DISL,ioos:station:DISL:MHPA:1,2009-02-03T17:00:00Z,30.6671,-87.9365,3.114,0.13,1111122 
DISL,ioos:station:DISL:MHPA:1,2009-02-03T17:30:00Z,30.6671,-87.9365,3.209,0.13,1111122 
DISL,ioos:station:DISL:MHPA:1,2009-02-03T18:00:00Z,30.6671,-87.9365,3.328,0.13,1111122 
DISL,ioos:station:DISL:MHPA:1,2009-02-03T18:30:00Z,30.6671,-87.9365,3.473,0.13,1111122 
DISL,ioos:station:DISL:MHPA:1,2009-02-03T19:00:00Z,30.6671,-87.9365,3.606,0.13,1111122 
DISL,ioos:station:DISL:MHPA:1,2009-02-03T19:30:00Z,30.6671,-87.9365,3.911,0.14,1111122 
DISL,ioos:station:DISL:MHPA:1,2009-02-03T20:00:00Z,30.6671,-87.9365,4.068,0.14,1111122 
DISL,ioos:station:DISL:MHPA:1,2009-02-03T20:30:00Z,30.6671,-87.9365,4.214,0.13,1111122 
DISL,ioos:station:DISL:MHPA:1,2009-02-03T21:00:00Z,30.6671,-87.9365,4.295,0.12,1111122 
DISL,ioos:station:DISL:MHPA:1,2009-02-03T21:30:00Z,30.6671,-87.9365,4.286,0.13,1111122 
DISL,ioos:station:DISL:MHPA:1,2009-02-03T22:00:00Z,30.6671,-87.9365,4.389,0.14,1111122 
DISL,ioos:station:DISL:MHPA:1,2009-02-03T22:30:00Z,30.6671,-87.9365,4.347,0.15,1111122 
DISL,ioos:station:DISL:MHPA:1,2009-02-03T23:00:00Z,30.6671,-87.9365,4.37,0.15,1111122 
DISL,ioos:station:DISL:MHPA:1,2009-02-03T23:30:00Z,30.6671,-87.9365,4.281,0.14,1111122 
DISL,ioos:station:DISL:MHPA:1,2009-02-04T00:00:00Z,30.6671,-87.9365,4.234,0.15,1111122 
DISL,ioos:station:DISL:MHPA:1,2009-02-04T00:30:00Z,30.6671,-87.9365,4.182,0.15,1111122 
DISL,ioos:station:DISL:MHPA:1,2009-02-04T01:00:00Z,30.6671,-87.9365,4.096,0.14,1111122 
DISL,ioos:station:DISL:MHPA:1,2009-02-04T01:30:00Z,30.6671,-87.9365,3.996,0.14,1111122 
DISL,ioos:station:DISL:MHPA:1,2009-02-04T02:00:00Z,30.6671,-87.9365,3.882,0.14,1111122 
DISL,ioos:station:DISL:MHPA:1,2009-02-04T02:30:00Z,30.6671,-87.9365,3.725,0.14,1111122 
DISL,ioos:station:DISL:MHPA:1,2009-02-04T03:00:00Z,30.6671,-87.9365,3.56,0.14,1111122 
DISL,ioos:station:DISL:MHPA:1,2009-02-04T03:30:00Z,30.6671,-87.9365,3.322,0.14,1111122 
DISL,ioos:station:DISL:MHPA:1,2009-02-04T04:00:00Z,30.6671,-87.9365,3.073,0.15,1111122 
DISL,ioos:station:DISL:MHPA:1,2009-02-04T04:30:00Z,30.6671,-87.9365,2.861,0.17,1111122 
DISL,ioos:station:DISL:MHPA:1,2009-02-04T05:00:00Z,30.6671,-87.9365,2.687,0.18,1111122 
DISL,ioos:station:DISL:MHPA:1,2009-02-04T05:30:00Z,30.6671,-87.9365,2.492,0.16,1111122 
DISL,ioos:station:DISL:MHPA:1,2009-02-04T06:00:00Z,30.6671,-87.9365,2.309,0.15,1111122 
DISL,ioos:station:DISL:MHPA:1,2009-02-04T06:30:00Z,30.6671,-87.9365,2.138,0.15,1111122 
DISL,ioos:station:DISL:MHPA:1,2009-02-04T07:00:00Z,30.6671,-87.9365,2.025,0.15,1111122 
DISL,ioos:station:DISL:MHPA:1,2009-02-04T07:30:00Z,30.6671,-87.9365,1.918,0.16,1111122 
DISL,ioos:station:DISL:MHPA:1,2009-02-04T08:00:00Z,30.6671,-87.9365,1.781,0.16,1111122 
DISL,ioos:station:DISL:MHPA:1,2009-02-04T08:30:00Z,30.6671,-87.9365,1.658,0.16,1111122 
DISL,ioos:station:DISL:MHPA:1,2009-02-04T09:00:00Z,30.6671,-87.9365,1.552,0.16,1111122 
DISL,ioos:station:DISL:MHPA:1,2009-02-04T09:30:00Z,30.6671,-87.9365,1.459,0.16,1111122 
DISL,ioos:station:DISL:MHPA:1,2009-02-04T10:00:00Z,30.6671,-87.9365,1.383,0.16,1111122 
DISL,ioos:station:DISL:MHPA:1,2009-02-04T10:30:00Z,30.6671,-87.9365,1.311,0.16,1111122 
DISL,ioos:station:DISL:MHPA:1,2009-02-04T11:00:00Z,30.6671,-87.9365,1.257,0.16,1111122 
DISL,ioos:station:DISL:MHPA:1,2009-02-04T11:30:00Z,30.6671,-87.9365,1.223,0.16,1111122 
DISL,ioos:station:DISL:MHPA:1,2009-02-04T12:00:00Z,30.6671,-87.9365,1.2,0.16,1111122 
DISL,ioos:station:DISL:MHPA:1,2009-02-04T12:30:00Z,30.6671,-87.9365,1.182,0.16,1111122 
DISL,ioos:station:DISL:MHPA:1,2009-02-04T13:00:00Z,30.6671,-87.9365,1.168,0.16,1111122 
DISL,ioos:station:DISL:MHPA:1,2009-02-04T13:30:00Z,30.6671,-87.9365,1.154,0.16,1111122 
DISL,ioos:station:DISL:MHPA:1,2009-02-04T14:00:00Z,30.6671,-87.9365,1.148,0.16,1111122 
DISL,ioos:station:DISL:MHPA:1,2009-02-04T14:30:00Z,30.6671,-87.9365,1.134,0.16,1111122 
DISL,ioos:station:DISL:MHPA:1,2009-02-04T15:00:00Z,30.6671,-87.9365,1.122,0.16,1111122 
DISL,ioos:station:DISL:MHPA:1,2009-02-04T15:30:00Z,30.6671,-87.9365,1.115,0.16,1111122 
DISL,ioos:station:DISL:MHPA:1,2009-02-04T16:00:00Z,30.6671,-87.9365,1.107,0.16,1111122 
DISL,ioos:station:DISL:MHPA:1,2009-02-04T16:30:00Z,30.6671,-87.9365,1.1,0.16,1111122 
DISL,ioos:station:DISL:MHPA:1,2009-02-04T17:00:00Z,30.6671,-87.9365,1.093,0.16,1111122 
DISL,ioos:station:DISL:MHPA:1,2009-02-04T17:30:00Z,30.6671,-87.9365,1.091,0.16,1111122 
DISL,ioos:station:DISL:MHPA:1,2009-02-04T18:00:00Z,30.6671,-87.9365,1.089,0.16,1111122 
DISL,ioos:station:DISL:MHPA:1,2009-02-04T18:30:00Z,30.6671,-87.9365,1.103,0.16,1111122 
DISL,ioos:station:DISL:MHPA:1,2009-02-04T19:00:00Z,30.6671,-87.9365,1.197,0.16,1111122 
DISL,ioos:station:DISL:MHPA:1,2009-02-04T19:30:00Z,30.6671,-87.9365,1.454,0.16,1111122 
DISL,ioos:station:DISL:MHPA:1,2009-02-04T20:00:00Z,30.6671,-87.9365,1.81,0.16,1111122 
DISL,ioos:station:DISL:MHPA:1,2009-02-04T20:30:00Z,30.6671,-87.9365,2.091,0.16,1111122 
DISL,ioos:station:DISL:MHPA:1,2009-02-04T21:00:00Z,30.6671,-87.9365,2.281,0.16,1111122 
DISL,ioos:station:DISL:MHPA:1,2009-02-04T21:30:00Z,30.6671,-87.9365,2.446,0.16,1111122 
DISL,ioos:station:DISL:MHPA:1,2009-02-04T22:00:00Z,30.6671,-87.9365,2.591,0.16,1111122 
DISL,ioos:station:DISL:MHPA:1,2009-02-04T22:30:00Z,30.6671,-87.9365,2.682,0.17,1111122 
DISL,ioos:station:DISL:MHPA:1,2009-02-04T23:00:00Z,30.6671,-87.9365,2.779,0.17,1111122 
DISL,ioos:station:DISL:MHPA:1,2009-02-04T23:30:00Z,30.6671,-87.9365,2.908,0.17,1111122 
DISL,ioos:station:DISL:MHPA:1,2009-02-05T00:00:00Z,30.6671,-87.9365,2.961,0.16,1111122 
DISL,ioos:station:DISL:MHPA:1,2009-02-05T00:30:00Z,30.6671,-87.9365,2.963,0.17,1111122 
DISL,ioos:station:DISL:MHPA:1,2009-02-05T01:00:00Z,30.6671,-87.9365,3.037,0.16,1111122 
DISL,ioos:station:DISL:MHPA:1,2009-02-05T01:30:00Z,30.6671,-87.9365,3.065,0.14,1111122 
DISL,ioos:station:DISL:MHPA:1,2009-02-05T02:00:00Z,30.6671,-87.9365,3.035,0.13,1111122 
DISL,ioos:station:DISL:MHPA:1,2009-02-05T02:30:00Z,30.6671,-87.9365,3.051,0.13,1111122 
DISL,ioos:station:DISL:MHPA:1,2009-02-05T03:00:00Z,30.6671,-87.9365,2.98,0.14,1111122 
DISL,ioos:station:DISL:MHPA:1,2009-02-05T03:30:00Z,30.6671,-87.9365,2.842,0.14,1111122 
DISL,ioos:station:DISL:MHPA:1,2009-02-05T04:00:00Z,30.6671,-87.9365,2.74,0.14,1111122 
DISL,ioos:station:DISL:MHPA:1,2009-02-05T04:30:00Z,30.6671,-87.9365,2.668,0.14,1111122 
DISL,ioos:station:DISL:MHPA:1,2009-02-05T05:00:00Z,30.6671,-87.9365,2.535,0.14,1111122 
DISL,ioos:station:DISL:MHPA:1,2009-02-05T05:30:00Z,30.6671,-87.9365,2.4,0.15,1111122 
DISL,ioos:station:DISL:MHPA:1,2009-02-05T06:00:00Z,30.6671,-87.9365,2.272,0.15,1111122 
DISL,ioos:station:DISL:MHPA:1,2009-02-05T06:30:00Z,30.6671,-87.9365,2.154,0.15,1111122 
DISL,ioos:station:DISL:MHPA:1,2009-02-05T07:00:00Z,30.6671,-87.9365,2.037,0.16,1111122 
DISL,ioos:station:DISL:MHPA:1,2009-02-05T07:30:00Z,30.6671,-87.9365,1.919,0.16,1111122 
DISL,ioos:station:DISL:MHPA:1,2009-02-05T08:00:00Z,30.6671,-87.9365,1.803,0.16,1111122 
DISL,ioos:station:DISL:MHPA:1,2009-02-05T08:30:00Z,30.6671,-87.9365,1.697,0.16,1111122 
DISL,ioos:station:DISL:MHPA:1,2009-02-05T09:00:00Z,30.6671,-87.9365,1.611,0.17,1111122 
DISL,ioos:station:DISL:MHPA:1,2009-02-05T09:30:00Z,30.6671,-87.9365,1.532,0.17,1111122 
DISL,ioos:station:DISL:MHPA:1,2009-02-05T10:00:00Z,30.6671,-87.9365,1.458,0.17,1111122 
DISL,ioos:station:DISL:MHPA:1,2009-02-05T10:30:00Z,30.6671,-87.9365,1.391,0.17,1111122 
DISL,ioos:station:DISL:MHPA:1,2009-02-05T11:00:00Z,30.6671,-87.9365,1.337,0.17,1111122 
DISL,ioos:station:DISL:MHPA:1,2009-02-05T11:30:00Z,30.6671,-87.9365,1.295,0.17,1111122 
DISL,ioos:station:DISL:MHPA:1,2009-02-05T12:00:00Z,30.6671,-87.9365,1.264,0.17,1111122 
DISL,ioos:station:DISL:MHPA:1,2009-02-05T12:30:00Z,30.6671,-87.9365,1.24,0.17,1111122 
DISL,ioos:station:DISL:MHPA:1,2009-02-05T13:00:00Z,30.6671,-87.9365,1.222,0.17,1111122 
DISL,ioos:station:DISL:MHPA:1,2009-02-05T13:30:00Z,30.6671,-87.9365,1.207,0.17,1111122 
DISL,ioos:station:DISL:MHPA:1,2009-02-05T14:00:00Z,30.6671,-87.9365,1.195,0.17,1111122 
DISL,ioos:station:DISL:MHPA:1,2009-02-05T14:30:00Z,30.6671,-87.9365,1.184,0.17,1111122 
DISL,ioos:station:DISL:MHPA:1,2009-02-05T15:00:00Z,30.6671,-87.9365,1.176,0.17,1111122 
DISL,ioos:station:DISL:MHPA:1,2009-02-05T15:30:00Z,30.6671,-87.9365,1.166,0.17,1111122 
DISL,ioos:station:DISL:MHPA:1,2009-02-05T16:00:00Z,30.6671,-87.9365,1.16,0.17,1111122 
DISL,ioos:station:DISL:MHPA:1,2009-02-05T16:30:00Z,30.6671,-87.9365,1.154,0.17,1111122 
DISL,ioos:station:DISL:MHPA:1,2009-02-05T17:00:00Z,30.6671,-87.9365,1.155,0.17,1111122 
DISL,ioos:station:DISL:MHPA:1,2009-02-05T17:30:00Z,30.6671,-87.9365,1.217,0.17,1111122 
DISL,ioos:station:DISL:MHPA:1,2009-02-05T18:00:00Z,30.6671,-87.9365,1.437,0.17,1111122 
DISL,ioos:station:DISL:MHPA:1,2009-02-05T18:30:00Z,30.6671,-87.9365,1.737,0.17,1111122 
DISL,ioos:station:DISL:MHPA:1,2009-02-05T19:00:00Z,30.6671,-87.9365,1.972,0.17,1111122 
DISL,ioos:station:DISL:MHPA:1,2009-02-05T19:30:00Z,30.6671,-87.9365,2.126,0.17,1111122 
DISL,ioos:station:DISL:MHPA:1,2009-02-05T20:00:00Z,30.6671,-87.9365,2.245,0.17,1111122 
DISL,ioos:station:DISL:MHPA:1,2009-02-05T20:30:00Z,30.6671,-87.9365,2.379,0.17,1111122 
DISL,ioos:station:DISL:MHPA:1,2009-02-05T21:00:00Z,30.6671,-87.9365,2.521,0.17,1111122 
DISL,ioos:station:DISL:MHPA:1,2009-02-05T21:30:00Z,30.6671,-87.9365,2.686,0.17,1111122 
DISL,ioos:station:DISL:MHPA:1,2009-02-05T22:00:00Z,30.6671,-87.9365,2.855,0.17,1111122 
DISL,ioos:station:DISL:MHPA:1,2009-02-05T22:30:00Z,30.6671,-87.9365,3.064,0.17,1111122 
DISL,ioos:station:DISL:MHPA:1,2009-02-05T23:00:00Z,30.6671,-87.9365,3.254,0.17,1111122 
DISL,ioos:station:DISL:MHPA:1,2009-02-05T23:30:00Z,30.6671,-87.9365,3.344,0.14,1111122 
DISL,ioos:station:DISL:MHPA:1,2009-02-06T00:00:00Z,30.6671,-87.9365,3.483,0.13,1111122 
DISL,ioos:station:DISL:MHPA:1,2009-02-06T00:30:00Z,30.6671,-87.9365,3.581,0.13,1111122 
DISL,ioos:station:DISL:MHPA:1,2009-02-06T01:00:00Z,30.6671,-87.9365,3.678,0.13,1111122 
DISL,ioos:station:DISL:MHPA:1,2009-02-06T01:30:00Z,30.6671,-87.9365,3.727,0.14,1111122 
DISL,ioos:station:DISL:MHPA:1,2009-02-06T02:00:00Z,30.6671,-87.9365,3.749,0.14,1111122 
DISL,ioos:station:DISL:MHPA:1,2009-02-06T02:30:00Z,30.6671,-87.9365,3.778,0.14,1111122 
DISL,ioos:station:DISL:MHPA:1,2009-02-06T03:00:00Z,30.6671,-87.9365,3.833,0.14,1111122 
DISL,ioos:station:DISL:MHPA:1,2009-02-06T03:30:00Z,30.6671,-87.9365,3.836,0.15,1111122 
DISL,ioos:station:DISL:MHPA:1,2009-02-06T04:00:00Z,30.6671,-87.9365,3.772,0.15,1111122 
DISL,ioos:station:DISL:MHPA:1,2009-02-06T04:30:00Z,30.6671,-87.9365,3.716,0.15,1111122 
DISL,ioos:station:DISL:MHPA:1,2009-02-06T05:00:00Z,30.6671,-87.9365,3.627,0.15,1111122 
DISL,ioos:station:DISL:MHPA:1,2009-02-06T05:30:00Z,30.6671,-87.9365,3.493,0.15,1111122 
DISL,ioos:station:DISL:MHPA:1,2009-02-06T06:00:00Z,30.6671,-87.9365,3.328,0.15,1111122 
DISL,ioos:station:DISL:MHPA:1,2009-02-06T06:30:00Z,30.6671,-87.9365,3.173,0.16,1111122 
DISL,ioos:station:DISL:MHPA:1,2009-02-06T07:00:00Z,30.6671,-87.9365,3.017,0.16,1111122 
DISL,ioos:station:DISL:MHPA:1,2009-02-06T07:30:00Z,30.6671,-87.9365,2.867,0.15,1111122 
DISL,ioos:station:DISL:MHPA:1,2009-02-06T08:00:00Z,30.6671,-87.9365,2.711,0.27,1111122 
DISL,ioos:station:DISL:MHPA:1,2009-02-06T08:30:00Z,30.6671,-87.9365,2.555,0.23,1111122 
DISL,ioos:station:DISL:MHPA:1,2009-02-06T09:00:00Z,30.6671,-87.9365,2.439,0.19,1111122 
DISL,ioos:station:DISL:MHPA:1,2009-02-06T09:30:00Z,30.6671,-87.9365,2.333,0.18,1111122 
DISL,ioos:station:DISL:MHPA:1,2009-02-06T10:00:00Z,30.6671,-87.9365,2.228,0.18,1111122 
DISL,ioos:station:DISL:MHPA:1,2009-02-06T10:30:00Z,30.6671,-87.9365,2.12,0.17,1111122 
DISL,ioos:station:DISL:MHPA:1,2009-02-06T11:00:00Z,30.6671,-87.9365,2.025,0.18,1111122 
DISL,ioos:station:DISL:MHPA:1,2009-02-06T11:30:00Z,30.6671,-87.9365,1.937,0.17,1111122 
DISL,ioos:station:DISL:MHPA:1,2009-02-06T12:00:00Z,30.6671,-87.9365,1.852,0.17,1111122 
DISL,ioos:station:DISL:MHPA:1,2009-02-06T12:30:00Z,30.6671,-87.9365,1.768,0.21,1111122 
DISL,ioos:station:DISL:MHPA:1,2009-02-06T13:00:00Z,30.6671,-87.9365,1.689,0.33,1111122 
DISL,ioos:station:DISL:MHPA:1,2009-02-06T13:30:00Z,30.6671,-87.9365,1.615,0.31,1111122 
DISL,ioos:station:DISL:MHPA:1,2009-02-06T14:00:00Z,30.6671,-87.9365,1.553,0.19,1111122 
DISL,ioos:station:DISL:MHPA:1,2009-02-06T14:30:00Z,30.6671,-87.9365,1.503,0.18,1111122 
DISL,ioos:station:DISL:MHPA:1,2009-02-06T15:00:00Z,30.6671,-87.9365,1.466,0.17,1111122 
DISL,ioos:station:DISL:MHPA:1,2009-02-06T15:30:00Z,30.6671,-87.9365,1.455,0.18,1111122 